Вернуться в каталог

COSMOS 394

АктивенВоенныеVLEO
NORAD 4922·PAYLOAD·🇷🇺 Russia

Запущен Feb 9, 1971 с Plesetsk Cosmodrome

Loading…

Ближайшие Пролёты

TLE

Source: Space-Track
1 04922U 71010A   26229.93306823  .00003781  00000-0  73723-4 0  9996
2 04922  65.8181  72.5206 0008999 226.1842 133.8565 15.49140450 67580

Отслеживайте COSMOS 394 в реальном времени с AllMySat

Download on the App Store